Time,TemperatureF,DewpointF,PressureIn,WindDirection,WindDirectionDegrees,WindSpeedMPH,WindSpeedGustMPH,Humidity,HourlyPrecipIn,Conditions,Clouds,dailyrainin,SoftwareType,DateUTC
2013-04-17 00:01:00,67.2,55.0,30.36,SSE,158,0.0,4.4,65,0.00,,,0.00,WUHU216HW,2013-04-17 04:01:00,
2013-04-17 00:06:00,67.2,55.0,30.35,SSE,158,0.0,4.4,65,0.00,,,0.00,WUHU216HW,2013-04-17 04:06:00,
2013-04-17 00:11:00,67.2,55.0,30.35,SSE,158,0.0,4.4,65,0.00,,,0.00,WUHU216HW,2013-04-17 04:11:00,
2013-04-17 00:16:00,67.1,54.8,30.35,South,180,0.0,0.0,65,0.00,,,0.00,WUHU216HW,2013-04-17 04:16:00,
2013-04-17 00:21:00,67.1,54.8,30.35,South,180,0.0,0.0,65,0.00,,,0.00,WUHU216HW,2013-04-17 04:21:00,
2013-04-17 00:26:00,67.1,54.8,30.35,SE,135,0.0,0.0,65,0.00,,,0.00,WUHU216HW,2013-04-17 04:26:00,
2013-04-17 00:31:00,67.1,54.8,30.35,SSE,158,0.0,0.0,65,0.00,,,0.00,WUHU216HW,2013-04-17 04:31:00,
2013-04-17 00:36:00,66.9,54.7,30.35,ESE,113,0.0,0.0,65,0.00,,,0.00,WUHU216HW,2013-04-17 04:36:00,
2013-04-17 00:41:00,66.9,54.7,30.35,SE,135,0.0,0.0,65,0.00,,,0.00,WUHU216HW,2013-04-17 04:41:00,
2013-04-17 00:46:00,66.9,55.1,30.35,SE,135,0.0,0.0,66,0.00,,,0.00,WUHU216HW,2013-04-17 04:46:00,
2013-04-17 00:51:00,66.7,54.9,30.35,SSE,158,0.0,0.0,66,0.00,,,0.00,WUHU216HW,2013-04-17 04:51:00,
2013-04-17 00:56:00,66.7,54.9,30.36,SE,135,0.0,0.0,66,0.00,,,0.00,WUHU216HW,2013-04-17 04:56:00,
2013-04-17 01:01:00,66.7,54.9,30.35,SE,135,0.0,0.0,66,0.00,,,0.00,WUHU216HW,2013-04-17 05:01:00,
2013-04-17 01:06:00,66.5,54.8,30.36,SE,135,0.0,0.0,66,0.00,,,0.00,WUHU216HW,2013-04-17 05:06:00,
2013-04-17 01:11:00,66.5,54.8,30.35,SE,135,0.0,0.0,66,0.00,,,0.00,WUHU216HW,2013-04-17 05:11:00,
2013-04-17 01:16:00,66.5,54.8,30.35,SE,135,0.0,0.0,66,0.00,,,0.00,WUHU216HW,2013-04-17 05:16:00,
2013-04-17 01:21:00,66.3,54.6,30.35,SE,135,0.0,0.0,66,0.00,,,0.00,WUHU216HW,2013-04-17 05:21:00,
2013-04-17 01:26:00,66.3,54.6,30.35,SE,135,0.0,0.0,66,0.00,,,0.00,WUHU216HW,2013-04-17 05:26:00,
2013-04-17 01:31:00,66.2,54.4,30.34,SE,135,0.0,0.0,66,0.00,,,0.00,WUHU216HW,2013-04-17 05:31:00,
2013-04-17 01:36:00,66.0,54.6,30.34,ESE,113,0.0,0.0,67,0.00,,,0.00,WUHU216HW,2013-04-17 05:36:00,
2013-04-17 01:41:00,65.8,54.5,30.34,SE,135,0.0,0.0,67,0.00,,,0.00,WUHU216HW,2013-04-17 05:41:00,
2013-04-17 01:46:00,65.8,54.5,30.34,SE,135,0.0,0.0,67,0.00,,,0.00,WUHU216HW,2013-04-17 05:46:00,
2013-04-17 01:51:00,65.4,54.1,30.34,SSE,158,0.0,0.0,67,0.00,,,0.00,WUHU216HW,2013-04-17 05:51:00,
2013-04-17 01:56:00,65.4,53.7,30.34,SSE,158,0.0,0.0,66,0.00,,,0.00,WUHU216HW,2013-04-17 05:56:00,
2013-04-17 02:01:00,65.3,53.6,30.34,SSE,158,0.0,0.0,66,0.00,,,0.00,WUHU216HW,2013-04-17 06:01:00,
2013-04-17 02:06:00,65.1,53.8,30.34,SSE,158,0.0,0.0,67,0.00,,,0.00,WUHU216HW,2013-04-17 06:06:00,
2013-04-17 02:11:00,64.7,53.5,30.34,SSE,158,0.0,0.0,67,0.00,,,0.00,WUHU216HW,2013-04-17 06:11:00,
2013-04-17 02:16:00,64.5,53.7,30.34,SE,135,0.0,0.0,68,0.00,,,0.00,WUHU216HW,2013-04-17 06:16:00,
2013-04-17 02:21:00,64.4,53.6,30.34,SE,135,0.0,0.0,68,0.00,,,0.00,WUHU216HW,2013-04-17 06:21:00,
2013-04-17 02:27:00,64.2,53.4,30.34,SE,135,0.0,0.0,68,0.00,,,0.00,WUHU216HW,2013-04-17 06:27:00,
2013-04-17 02:32:00,64.0,53.2,30.34,SE,135,0.0,0.0,68,0.00,,,0.00,WUHU216HW,2013-04-17 06:32:00,
2013-04-17 02:37:00,63.6,52.9,30.34,SE,135,0.0,0.0,68,0.00,,,0.00,WUHU216HW,2013-04-17 06:37:00,
2013-04-17 02:42:00,63.5,52.5,30.35,SE,135,0.0,0.0,68,0.00,,,0.00,WUHU216HW,2013-04-17 06:42:00,
2013-04-17 02:47:00,63.1,52.3,30.35,SE,135,0.0,0.0,68,0.00,,,0.00,WUHU216HW,2013-04-17 06:47:00,
2013-04-17 02:52:00,62.9,52.2,30.35,SE,135,0.0,0.0,68,0.00,,,0.00,WUHU216HW,2013-04-17 06:52:00,
2013-04-17 02:57:00,62.6,52.2,30.35,SE,135,0.0,0.0,69,0.00,,,0.00,WUHU216HW,2013-04-17 06:57:00,
2013-04-17 03:02:00,62.4,52.1,30.35,SE,135,0.0,0.0,69,0.00,,,0.00,WUHU216HW,2013-04-17 07:02:00,
2013-04-17 03:07:00,62.2,52.3,30.35,SE,135,0.0,0.0,70,0.00,,,0.00,WUHU216HW,2013-04-17 07:07:00,
2013-04-17 03:12:00,62.0,52.0,30.36,SE,135,0.0,0.0,70,0.00,,,0.00,WUHU216HW,2013-04-17 07:12:00,
2013-04-17 03:17:00,61.8,52.0,30.36,SE,135,0.0,0.0,70,0.00,,,0.00,WUHU216HW,2013-04-17 07:17:00,
2013-04-17 03:22:00,61.7,52.2,30.36,SE,135,0.0,0.0,71,0.00,,,0.00,WUHU216HW,2013-04-17 07:22:00,
2013-04-17 03:27:00,61.5,52.0,30.36,SE,135,0.0,0.0,71,0.00,,,0.00,WUHU216HW,2013-04-17 07:27:00,
2013-04-17 03:32:00,61.3,51.9,30.36,SE,135,0.0,0.0,71,0.00,,,0.00,WUHU216HW,2013-04-17 07:32:00,
2013-04-17 03:37:00,61.3,51.9,30.36,SE,135,0.0,0.0,71,0.00,,,0.00,WUHU216HW,2013-04-17 07:37:00,
2013-04-17 03:42:00,61.1,51.9,30.36,SE,135,0.0,0.0,72,0.00,,,0.00,WUHU216HW,2013-04-17 07:42:00,
2013-04-17 03:47:00,60.9,51.9,30.35,SE,135,0.0,0.0,72,0.00,,,0.00,WUHU216HW,2013-04-17 07:47:00,
2013-04-17 03:52:00,60.8,51.8,30.35,SE,135,0.0,0.0,72,0.00,,,0.00,WUHU216HW,2013-04-17 07:52:00,
2013-04-17 03:57:00,60.6,51.6,30.35,SE,135,0.0,0.0,72,0.00,,,0.00,WUHU216HW,2013-04-17 07:57:00,
2013-04-17 04:02:00,60.4,51.8,30.36,SE,135,0.0,0.0,73,0.00,,,0.00,WUHU216HW,2013-04-17 08:02:00,
2013-04-17 04:07:00,60.4,51.8,30.35,SE,135,0.0,0.0,73,0.00,,,0.00,WUHU216HW,2013-04-17 08:07:00,
2013-04-17 04:12:00,60.4,51.8,30.35,SE,135,0.0,0.0,73,0.00,,,0.00,WUHU216HW,2013-04-17 08:12:00,
2013-04-17 04:17:00,60.4,51.8,30.35,SE,135,0.0,0.0,73,0.00,,,0.00,WUHU216HW,2013-04-17 08:17:00,
2013-04-17 04:22:00,60.4,51.8,30.35,SE,135,0.0,0.0,73,0.00,,,0.00,WUHU216HW,2013-04-17 08:22:00,
2013-04-17 04:27:00,60.4,52.1,30.35,SE,135,0.0,0.0,74,0.00,,,0.00,WUHU216HW,2013-04-17 08:27:00,
2013-04-17 04:32:00,60.4,52.1,30.35,SE,135,0.0,0.0,74,0.00,,,0.00,WUHU216HW,2013-04-17 08:32:00,
2013-04-17 04:37:00,60.0,52.1,30.35,SE,135,0.0,0.0,75,0.00,,,0.00,WUHU216HW,2013-04-17 08:37:00,
2013-04-17 04:42:00,59.9,52.3,30.35,SE,135,0.0,0.0,76,0.00,,,0.00,WUHU216HW,2013-04-17 08:42:00,
2013-04-17 04:47:00,59.7,51.8,30.35,SE,135,0.0,0.0,75,0.00,,,0.00,WUHU216HW,2013-04-17 08:47:00,
2013-04-17 04:52:00,59.7,51.8,30.36,SE,135,0.0,0.0,75,0.00,,,0.00,WUHU216HW,2013-04-17 08:52:00,
2013-04-17 04:57:00,59.5,51.6,30.36,SE,135,0.0,0.0,75,0.00,,,0.00,WUHU216HW,2013-04-17 08:57:00,
2013-04-17 05:02:00,59.5,51.6,30.35,SE,135,0.0,0.0,75,0.00,,,0.00,WUHU216HW,2013-04-17 09:02:00,
2013-04-17 05:07:00,59.3,51.4,30.35,SE,135,0.0,0.0,75,0.00,,,0.00,WUHU216HW,2013-04-17 09:07:00,
2013-04-17 05:12:00,59.3,51.2,30.35,SE,135,0.0,0.0,75,0.00,,,0.00,WUHU216HW,2013-04-17 09:12:00,
2013-04-17 05:17:00,59.1,51.6,30.35,SE,135,0.0,0.0,76,0.00,,,0.00,WUHU216HW,2013-04-17 09:17:00,
2013-04-17 05:22:00,59.1,51.6,30.35,SE,135,0.0,0.0,76,0.00,,,0.00,WUHU216HW,2013-04-17 09:22:00,
2013-04-17 05:27:00,59.1,51.6,30.35,SE,135,0.0,0.0,76,0.00,,,0.00,WUHU216HW,2013-04-17 09:27:00,
2013-04-17 05:32:00,59.1,51.6,30.35,SE,135,0.0,0.0,76,0.00,,,0.00,WUHU216HW,2013-04-17 09:32:00,
2013-04-17 05:37:00,59.1,51.9,30.35,SE,135,0.0,0.0,77,0.00,,,0.00,WUHU216HW,2013-04-17 09:37:00,
2013-04-17 05:42:00,59.3,52.1,30.35,SE,135,0.0,0.0,77,0.00,,,0.00,WUHU216HW,2013-04-17 09:42:00,
2013-04-17 05:47:00,59.3,52.5,30.36,SE,135,0.0,0.0,78,0.00,,,0.00,WUHU216HW,2013-04-17 09:47:00,
2013-04-17 05:52:00,59.3,52.5,30.36,SE,135,0.0,0.0,78,0.00,,,0.00,WUHU216HW,2013-04-17 09:52:00,
2013-04-17 05:57:00,59.3,52.5,30.37,SE,135,0.0,0.0,78,0.00,,,0.00,WUHU216HW,2013-04-17 09:57:00,
2013-04-17 06:02:00,59.3,52.8,30.37,East,90,0.0,0.0,79,0.00,,,0.00,WUHU216HW,2013-04-17 10:02:00,
2013-04-17 06:07:00,59.1,52.7,30.37,East,90,0.0,0.0,79,0.00,,,0.00,WUHU216HW,2013-04-17 10:07:00,
2013-04-17 06:12:00,59.1,52.7,30.38,East,90,0.0,0.0,79,0.00,,,0.00,WUHU216HW,2013-04-17 10:12:00,
2013-04-17 06:17:00,59.1,52.7,30.37,East,90,0.0,0.0,79,0.00,,,0.00,WUHU216HW,2013-04-17 10:17:00,
2013-04-17 06:22:00,59.1,52.7,30.37,ESE,113,0.0,0.0,79,0.00,,,0.00,WUHU216HW,2013-04-17 10:22:00,
2013-04-17 06:27:00,59.3,52.8,30.37,SE,135,0.0,0.0,79,0.00,,,0.00,WUHU216HW,2013-04-17 10:27:00,
2013-04-17 06:32:00,59.3,52.8,30.37,SE,135,0.0,0.0,79,0.00,,,0.00,WUHU216HW,2013-04-17 10:32:00,
2013-04-17 06:37:00,59.5,53.0,30.37,SE,135,0.0,0.0,79,0.00,,,0.00,WUHU216HW,2013-04-17 10:37:00,
2013-04-17 06:42:00,59.5,53.0,30.37,SE,135,0.0,0.0,79,0.00,,,0.00,WUHU216HW,2013-04-17 10:42:00,
2013-04-17 06:47:00,59.5,53.4,30.38,SE,135,0.0,0.0,80,0.00,,,0.00,WUHU216HW,2013-04-17 10:47:00,
2013-04-17 06:52:00,59.5,53.4,30.38,SE,135,0.0,0.0,80,0.00,,,0.00,WUHU216HW,2013-04-17 10:52:00,
2013-04-17 06:57:00,59.5,53.7,30.39,SE,135,0.0,0.0,81,0.00,,,0.00,WUHU216HW,2013-04-17 10:57:00,
2013-04-17 07:02:00,59.3,53.8,30.40,SE,135,0.0,0.0,82,0.00,,,0.00,WUHU216HW,2013-04-17 11:02:00,
2013-04-17 07:07:00,59.1,53.7,30.40,SE,135,0.0,0.0,82,0.00,,,0.00,WUHU216HW,2013-04-17 11:07:00,
2013-04-17 07:12:00,59.1,53.7,30.40,West,270,0.0,0.0,82,0.00,,,0.00,WUHU216HW,2013-04-17 11:12:00,
2013-04-17 07:17:00,59.1,53.7,30.39,West,270,0.0,0.0,82,0.04,,,0.00,WUHU216HW,2013-04-17 11:17:00,
2013-04-17 07:22:00,59.1,53.7,30.40,SE,135,0.0,0.0,82,0.10,,,0.10,WUHU216HW,2013-04-17 11:22:00,
2013-04-17 07:27:00,58.8,53.6,30.40,SE,135,0.0,0.0,83,0.12,,,0.12,WUHU216HW,2013-04-17 11:27:00,
2013-04-17 07:32:00,58.8,53.6,30.40,SE,135,0.0,0.0,83,0.12,,,0.12,WUHU216HW,2013-04-17 11:32:00,
2013-04-17 07:37:00,58.8,53.6,30.40,SE,135,0.0,0.0,83,0.14,,,0.14,WUHU216HW,2013-04-17 11:37:00,
2013-04-17 07:42:00,58.8,53.6,30.40,SE,135,0.0,0.0,83,0.16,,,0.14,WUHU216HW,2013-04-17 11:42:00,
2013-04-17 07:47:00,58.8,53.6,30.39,SE,135,0.0,0.0,83,0.16,,,0.16,WUHU216HW,2013-04-17 11:47:00,
2013-04-17 07:52:00,58.8,53.6,30.39,SE,135,0.0,0.0,83,0.16,,,0.16,WUHU216HW,2013-04-17 11:52:00,
2013-04-17 07:57:00,58.8,53.6,30.39,SE,135,0.0,0.0,83,0.16,,,0.16,WUHU216HW,2013-04-17 11:57:00,
2013-04-17 08:02:00,58.8,53.9,30.39,SE,135,0.0,0.0,84,0.18,,,0.18,WUHU216HW,2013-04-17 12:02:00,
2013-04-17 08:07:00,59.0,54.1,30.39,SE,135,0.0,0.0,84,0.18,,,0.18,WUHU216HW,2013-04-17 12:07:00,
2013-04-17 08:12:00,59.1,54.3,30.39,SE,135,0.0,0.0,84,0.20,,,0.20,WUHU216HW,2013-04-17 12:12:00,
2013-04-17 08:17:00,58.8,53.9,30.39,SE,135,0.0,0.0,84,0.12,,,0.20,WUHU216HW,2013-04-17 12:17:00,
2013-04-17 08:22:00,59.0,54.5,30.39,SE,135,0.0,0.0,85,0.10,,,0.20,WUHU216HW,2013-04-17 12:22:00,
2013-04-17 08:27:00,58.8,54.3,30.39,SE,135,0.0,0.0,85,0.08,,,0.20,WUHU216HW,2013-04-17 12:27:00,
2013-04-17 08:32:00,58.8,54.3,30.40,SE,135,0.0,0.0,85,0.08,,,0.20,WUHU216HW,2013-04-17 12:32:00,
2013-04-17 08:37:00,58.8,54.6,30.40,SE,135,0.0,0.0,86,0.06,,,0.20,WUHU216HW,2013-04-17 12:37:00,
2013-04-17 08:42:00,59.1,55.0,30.40,SE,135,0.0,0.0,86,0.04,,,0.20,WUHU216HW,2013-04-17 12:42:00,
2013-04-17 08:47:00,59.0,54.8,30.40,SE,135,0.0,0.0,86,0.04,,,0.20,WUHU216HW,2013-04-17 12:47:00,
2013-04-17 08:52:00,59.0,54.8,30.40,ENE,68,0.0,0.0,86,0.04,,,0.20,WUHU216HW,2013-04-17 12:52:00,
2013-04-17 08:57:00,58.8,54.9,30.40,ENE,68,0.0,0.0,87,0.02,,,0.20,WUHU216HW,2013-04-17 12:57:00,
2013-04-17 09:02:00,59.1,55.3,30.39,ENE,68,0.0,0.0,87,0.02,,,0.20,WUHU216HW,2013-04-17 13:02:00,
2013-04-17 09:07:00,59.1,55.3,30.39,ENE,68,0.0,0.0,87,0.00,,,0.20,WUHU216HW,2013-04-17 13:07:00,
2013-04-17 09:12:00,59.5,55.6,30.39,ENE,68,0.0,0.0,87,0.00,,,0.20,WUHU216HW,2013-04-17 13:12:00,
2013-04-17 09:17:00,59.7,55.8,30.39,ENE,68,0.0,0.0,87,0.00,,,0.20,WUHU216HW,2013-04-17 13:17:00,
2013-04-17 09:22:00,59.7,55.8,30.39,ENE,68,0.0,0.0,87,0.00,,,0.20,WUHU216HW,2013-04-17 13:22:00,
2013-04-17 09:27:00,60.0,56.2,30.39,ENE,68,0.0,0.0,87,0.00,,,0.20,WUHU216HW,2013-04-17 13:27:00,
2013-04-17 09:32:00,60.4,56.9,30.39,SSW,203,0.0,0.0,88,0.00,,,0.20,WUHU216HW,2013-04-17 13:32:00,
2013-04-17 09:37:00,60.6,57.0,30.39,SSW,203,0.0,0.0,88,0.00,,,0.20,WUHU216HW,2013-04-17 13:37:00,
2013-04-17 09:42:00,60.9,57.4,30.39,SSE,158,0.0,0.0,88,0.00,,,0.20,WUHU216HW,2013-04-17 13:42:00,
2013-04-17 09:47:00,61.5,57.9,30.38,SE,135,0.0,0.0,88,0.00,,,0.20,WUHU216HW,2013-04-17 13:47:00,
2013-04-17 09:52:00,61.5,57.9,30.39,SE,135,0.0,0.0,88,0.00,,,0.20,WUHU216HW,2013-04-17 13:52:00,
2013-04-17 09:57:00,61.8,58.4,30.39,SE,135,0.0,0.0,88,0.00,,,0.20,WUHU216HW,2013-04-17 13:57:00,
2013-04-17 10:02:00,62.4,58.8,30.38,SE,135,0.0,0.0,88,0.00,,,0.20,WUHU216HW,2013-04-17 14:02:00,
2013-04-17 10:07:00,62.4,59.1,30.39,SE,135,0.0,0.0,89,0.00,,,0.20,WUHU216HW,2013-04-17 14:07:00,
2013-04-17 10:12:00,62.9,59.7,30.39,SE,135,0.0,0.0,89,0.00,,,0.20,WUHU216HW,2013-04-17 14:12:00,
2013-04-17 10:17:00,63.1,59.9,30.39,SE,135,0.0,0.0,89,0.00,,,0.20,WUHU216HW,2013-04-17 14:17:00,
2013-04-17 10:22:00,63.6,60.4,30.38,SE,135,0.0,0.0,89,0.00,,,0.20,WUHU216HW,2013-04-17 14:22:00,
2013-04-17 10:27:00,64.2,60.9,30.38,SE,135,0.0,0.0,89,0.00,,,0.20,WUHU216HW,2013-04-17 14:27:00,
2013-04-17 10:32:00,64.5,61.3,30.39,SE,135,0.0,0.0,89,0.00,,,0.20,WUHU216HW,2013-04-17 14:32:00,
2013-04-17 10:37:00,64.7,61.1,30.38,SE,135,0.0,0.0,88,0.00,,,0.20,WUHU216HW,2013-04-17 14:37:00,
2013-04-17 10:42:00,64.7,61.3,30.38,SE,135,0.0,0.0,88,0.00,,,0.20,WUHU216HW,2013-04-17 14:42:00,
2013-04-17 10:47:00,64.9,61.3,30.39,SE,135,0.0,0.0,88,0.00,,,0.20,WUHU216HW,2013-04-17 14:47:00,
2013-04-17 10:52:00,64.9,61.3,30.39,SE,135,0.0,0.0,88,0.00,,,0.20,WUHU216HW,2013-04-17 14:52:00,
2013-04-17 10:57:00,64.9,60.9,30.39,NW,315,0.0,0.0,87,0.00,,,0.20,WUHU216HW,2013-04-17 14:57:00,
2013-04-17 11:02:00,64.5,60.6,30.39,West,270,0.0,0.0,87,0.00,,,0.20,WUHU216HW,2013-04-17 15:02:00,
2013-04-17 11:07:00,64.5,60.6,30.39,WSW,248,0.0,0.0,87,0.00,,,0.20,WUHU216HW,2013-04-17 15:07:00,
2013-04-17 11:12:00,64.2,59.9,30.39,WSW,248,0.0,0.0,86,0.00,,,0.20,WUHU216HW,2013-04-17 15:12:00,
2013-04-17 11:17:00,64.2,59.9,30.39,WNW,293,0.0,0.0,86,0.00,,,0.20,WUHU216HW,2013-04-17 15:17:00,
2013-04-17 11:22:00,64.2,59.9,30.39,West,270,0.0,0.0,86,0.00,,,0.20,WUHU216HW,2013-04-17 15:22:00,
2013-04-17 11:27:00,64.5,60.6,30.39,West,270,0.0,0.0,87,0.00,,,0.20,WUHU216HW,2013-04-17 15:27:00,
2013-04-17 11:32:00,64.9,60.9,30.39,West,270,0.0,0.0,87,0.00,,,0.20,WUHU216HW,2013-04-17 15:32:00,
2013-04-17 11:37:00,65.4,61.4,30.39,NW,315,0.0,0.0,87,0.00,,,0.20,WUHU216HW,2013-04-17 15:37:00,
2013-04-17 11:42:00,66.0,61.6,30.39,WNW,293,0.0,0.0,86,0.00,,,0.20,WUHU216HW,2013-04-17 15:42:00,
2013-04-17 11:48:00,66.2,61.8,30.39,NW,315,0.0,0.0,86,0.00,,,0.20,WUHU216HW,2013-04-17 15:48:00,
2013-04-17 11:53:00,66.7,62.0,30.39,NW,315,0.0,0.0,85,0.00,,,0.20,WUHU216HW,2013-04-17 15:53:00,
2013-04-17 11:58:00,66.9,61.9,30.39,NW,315,0.0,0.0,84,0.00,,,0.20,WUHU216HW,2013-04-17 15:58:00,
2013-04-17 12:03:00,67.2,62.2,30.39,West,270,0.0,0.0,84,0.00,,,0.20,WUHU216HW,2013-04-17 16:03:00,
2013-04-17 12:08:00,68.1,62.8,30.39,WNW,293,0.0,0.0,83,0.00,,,0.20,WUHU216HW,2013-04-17 16:08:00,
2013-04-17 12:13:00,68.5,63.1,30.38,WSW,248,0.0,0.0,83,0.00,,,0.20,WUHU216HW,2013-04-17 16:13:00,
2013-04-17 12:18:00,68.9,63.1,30.38,WSW,248,0.0,0.0,82,0.00,,,0.20,WUHU216HW,2013-04-17 16:18:00,
2013-04-17 12:23:00,69.6,63.1,30.37,WNW,293,0.0,0.0,80,0.00,,,0.20,WUHU216HW,2013-04-17 16:23:00,
2013-04-17 12:28:00,70.1,63.3,30.37,West,270,0.0,2.2,79,0.00,,,0.20,WUHU216HW,2013-04-17 16:28:00,
2013-04-17 12:33:00,70.5,63.2,30.37,NW,315,0.0,2.2,78,0.00,,,0.20,WUHU216HW,2013-04-17 16:33:00,
2013-04-17 12:38:00,71.0,62.6,30.37,WNW,293,0.0,0.0,75,0.00,,,0.20,WUHU216HW,2013-04-17 16:38:00,
2013-04-17 12:43:00,71.4,62.6,30.37,North,0,0.0,0.0,74,0.00,,,0.20,WUHU216HW,2013-04-17 16:43:00,
2013-04-17 12:48:00,71.7,63.0,30.37,North,0,0.0,0.0,74,0.00,,,0.20,WUHU216HW,2013-04-17 16:48:00,
2013-04-17 12:53:00,72.1,63.0,30.36,WNW,293,0.0,0.0,73,0.00,,,0.20,WUHU216HW,2013-04-17 16:53:00,
2013-04-17 12:58:00,72.1,62.2,30.37,NW,315,0.0,0.0,71,0.00,,,0.20,WUHU216HW,2013-04-17 16:58:00,
2013-04-17 13:03:00,72.1,61.8,30.37,SW,225,0.0,0.0,70,0.00,,,0.20,WUHU216HW,2013-04-17 17:03:00,
2013-04-17 13:08:00,71.7,61.0,30.38,NNW,338,0.0,0.0,69,0.00,,,0.20,WUHU216HW,2013-04-17 17:08:00,
2013-04-17 13:13:00,70.8,59.7,30.38,WNW,293,0.0,5.5,68,0.00,,,0.20,WUHU216HW,2013-04-17 17:13:00,
2013-04-17 13:18:00,69.8,59.1,30.38,NE,45,0.0,5.5,69,0.00,,,0.20,WUHU216HW,2013-04-17 17:18:00,
2013-04-17 13:23:00,68.5,58.4,30.38,North,0,0.0,3.8,70,0.00,,,0.20,WUHU216HW,2013-04-17 17:23:00,
2013-04-17 13:28:00,68.1,58.0,30.38,NNW,338,0.0,0.0,70,0.00,,,0.20,WUHU216HW,2013-04-17 17:28:00,
2013-04-17 13:33:00,67.2,57.9,30.38,NE,45,0.0,0.0,72,0.00,,,0.20,WUHU216HW,2013-04-17 17:33:00,
2013-04-17 13:38:00,67.1,58.1,30.39,NE,45,0.0,0.0,73,0.00,,,0.20,WUHU216HW,2013-04-17 17:38:00,
2013-04-17 13:43:00,67.1,58.1,30.39,NE,45,0.0,0.0,73,0.00,,,0.20,WUHU216HW,2013-04-17 17:43:00,
2013-04-17 13:48:00,66.7,58.1,30.39,NNE,23,0.0,0.0,74,0.00,,,0.20,WUHU216HW,2013-04-17 17:48:00,
2013-04-17 13:53:00,66.3,58.1,30.39,WSW,248,0.0,0.0,75,0.00,,,0.20,WUHU216HW,2013-04-17 17:53:00,
2013-04-17 13:58:00,66.0,58.2,30.38,NNE,23,0.0,0.0,76,0.00,,,0.20,WUHU216HW,2013-04-17 17:58:00,
2013-04-17 14:03:00,66.0,58.5,30.38,NNE,23,0.0,0.0,77,0.00,,,0.20,WUHU216HW,2013-04-17 18:03:00,
2013-04-17 14:08:00,65.4,58.4,30.39,WNW,293,0.0,0.0,78,0.02,,,0.20,WUHU216HW,2013-04-17 18:08:00,
2013-04-17 14:13:00,65.3,58.6,30.39,WNW,293,0.0,0.0,79,0.02,,,0.23,WUHU216HW,2013-04-17 18:13:00,
2013-04-17 14:18:00,65.3,59.1,30.39,NNW,338,0.0,0.0,80,0.02,,,0.23,WUHU216HW,2013-04-17 18:18:00,
2013-04-17 14:23:00,64.9,58.9,30.39,West,270,0.0,0.0,81,0.02,,,0.23,WUHU216HW,2013-04-17 18:23:00,
2013-04-17 14:28:00,64.7,59.1,30.39,NNW,338,0.0,0.0,82,0.02,,,0.23,WUHU216HW,2013-04-17 18:28:00,
2013-04-17 14:33:00,64.7,59.6,30.38,NNW,338,0.0,0.0,83,0.02,,,0.23,WUHU216HW,2013-04-17 18:33:00,
2013-04-17 14:38:00,65.1,59.8,30.38,West,270,0.0,0.0,83,0.02,,,0.23,WUHU216HW,2013-04-17 18:38:00,
2013-04-17 14:43:00,65.3,59.9,30.38,WSW,248,0.0,0.0,83,0.02,,,0.23,WUHU216HW,2013-04-17 18:43:00,
2013-04-17 14:48:00,66.0,61.0,30.38,WSW,248,0.0,0.0,84,0.02,,,0.23,WUHU216HW,2013-04-17 18:48:00,
2013-04-17 14:53:00,66.9,61.9,30.37,WSW,248,0.0,0.0,84,0.02,,,0.23,WUHU216HW,2013-04-17 18:53:00,
2013-04-17 14:58:00,67.8,62.4,30.37,WSW,248,0.0,0.0,83,0.02,,,0.23,WUHU216HW,2013-04-17 18:58:00,
2013-04-17 15:03:00,68.5,62.8,30.37,WSW,248,0.0,0.0,82,0.02,,,0.23,WUHU216HW,2013-04-17 19:03:00,
2013-04-17 15:08:00,69.6,62.7,30.36,WSW,248,0.0,0.0,79,0.00,,,0.23,WUHU216HW,2013-04-17 19:08:00,
2013-04-17 15:13:00,70.1,62.1,30.36,WSW,248,0.0,0.0,76,0.00,,,0.23,WUHU216HW,2013-04-17 19:13:00,
2013-04-17 15:18:00,70.8,62.5,30.35,WSW,248,0.0,0.0,75,0.00,,,0.23,WUHU216HW,2013-04-17 19:18:00,
2013-04-17 15:23:00,71.2,61.3,30.35,WNW,293,0.0,3.5,71,0.00,,,0.23,WUHU216HW,2013-04-17 19:23:00,
2013-04-17 15:28:00,71.2,61.3,30.35,NNW,338,0.0,3.5,71,0.00,,,0.23,WUHU216HW,2013-04-17 19:28:00,
2013-04-17 15:33:00,71.4,61.7,30.35,NNW,338,0.0,0.0,72,0.00,,,0.23,WUHU216HW,2013-04-17 19:33:00,
2013-04-17 15:38:00,71.4,61.5,30.34,WSW,248,0.0,0.0,71,0.00,,,0.23,WUHU216HW,2013-04-17 19:38:00,
2013-04-17 15:43:00,71.4,61.5,30.34,WSW,248,0.0,0.0,71,0.00,,,0.23,WUHU216HW,2013-04-17 19:43:00,
2013-04-17 15:48:00,71.7,61.0,30.34,WNW,293,0.0,0.0,70,0.00,,,0.23,WUHU216HW,2013-04-17 19:48:00,
2013-04-17 15:53:00,71.9,61.2,30.33,NNE,23,0.0,0.0,69,0.00,,,0.23,WUHU216HW,2013-04-17 19:53:00,
2013-04-17 15:58:00,72.1,61.4,30.34,WSW,248,0.0,0.0,69,0.00,,,0.23,WUHU216HW,2013-04-17 19:58:00,
2013-04-17 16:03:00,72.3,61.6,30.33,West,270,0.0,0.0,69,0.00,,,0.23,WUHU216HW,2013-04-17 20:03:00,
2013-04-17 16:08:00,72.6,61.5,30.33,WNW,293,0.0,0.0,68,0.00,,,0.23,WUHU216HW,2013-04-17 20:08:00,
2013-04-17 16:13:00,73.0,61.8,30.33,SE,135,0.0,0.0,68,0.00,,,0.23,WUHU216HW,2013-04-17 20:13:00,
2013-04-17 16:18:00,73.2,62.5,30.33,SE,135,0.0,4.0,69,0.00,,,0.23,WUHU216HW,2013-04-17 20:18:00,
2013-04-17 16:23:00,73.5,62.8,30.33,SSE,158,0.0,4.0,69,0.00,,,0.23,WUHU216HW,2013-04-17 20:23:00,
2013-04-17 16:28:00,73.5,62.8,30.33,SSE,158,0.0,4.6,69,0.00,,,0.23,WUHU216HW,2013-04-17 20:28:00,
2013-04-17 16:33:00,73.4,62.6,30.32,SSE,158,0.0,4.6,69,0.00,,,0.23,WUHU216HW,2013-04-17 20:33:00,
2013-04-17 16:38:00,73.2,62.5,30.31,SE,135,0.0,0.0,69,0.00,,,0.23,WUHU216HW,2013-04-17 20:38:00,
2013-04-17 16:43:00,73.2,62.0,30.31,SSE,158,0.0,0.0,68,0.00,,,0.23,WUHU216HW,2013-04-17 20:43:00,
2013-04-17 16:48:00,72.8,61.8,30.31,SSE,158,0.0,7.8,68,0.00,,,0.23,WUHU216HW,2013-04-17 20:48:00,
2013-04-17 16:53:00,72.6,61.9,30.31,SW,225,0.0,7.8,69,0.00,,,0.23,WUHU216HW,2013-04-17 20:53:00,
2013-04-17 16:58:00,72.5,61.7,30.31,SE,135,0.0,0.0,69,0.00,,,0.23,WUHU216HW,2013-04-17 20:58:00,
2013-04-17 17:03:00,72.3,61.6,30.31,SSE,158,0.0,0.0,69,0.00,,,0.23,WUHU216HW,2013-04-17 21:03:00,
2013-04-17 17:08:00,72.1,61.4,30.31,SE,135,0.0,0.0,69,0.00,,,0.23,WUHU216HW,2013-04-17 21:08:00,
2013-04-17 17:13:00,72.1,61.4,30.30,South,180,0.0,0.0,69,0.00,,,0.23,WUHU216HW,2013-04-17 21:13:00,
2013-04-17 17:18:00,71.9,60.8,30.31,ESE,113,0.0,0.0,68,0.00,,,0.23,WUHU216HW,2013-04-17 21:18:00,
2013-04-17 17:23:00,71.7,60.6,30.31,SE,135,0.0,0.0,68,0.00,,,0.23,WUHU216HW,2013-04-17 21:23:00,
2013-04-17 17:28:00,71.6,60.4,30.31,SE,135,0.0,0.0,68,0.00,,,0.23,WUHU216HW,2013-04-17 21:28:00,
2013-04-17 17:33:00,71.4,60.2,30.30,SSE,158,0.0,0.0,68,0.00,,,0.23,WUHU216HW,2013-04-17 21:33:00,
2013-04-17 17:38:00,71.4,60.2,30.30,SSE,158,0.0,0.0,68,0.00,,,0.23,WUHU216HW,2013-04-17 21:38:00,
2013-04-17 17:43:00,71.4,60.2,30.31,SE,135,0.0,0.0,68,0.00,,,0.23,WUHU216HW,2013-04-17 21:43:00,
2013-04-17 17:48:00,71.2,60.1,30.30,SSE,158,0.0,0.0,68,0.00,,,0.23,WUHU216HW,2013-04-17 21:48:00,
2013-04-17 17:53:00,70.8,59.3,30.30,SE,135,0.0,0.0,67,0.00,,,0.23,WUHU216HW,2013-04-17 21:53:00,
2013-04-17 17:58:00,70.7,59.1,30.30,SE,135,0.0,0.0,67,0.00,,,0.23,WUHU216HW,2013-04-17 21:58:00,
2013-04-17 18:03:00,70.7,59.5,30.29,SE,135,0.0,0.0,68,0.00,,,0.23,WUHU216HW,2013-04-17 22:03:00,
2013-04-17 18:08:00,70.3,59.2,30.29,SE,135,0.0,0.0,68,0.00,,,0.23,WUHU216HW,2013-04-17 22:08:00,
2013-04-17 18:13:00,70.3,59.2,30.29,ESE,113,1.1,1.1,68,0.00,,,0.23,WUHU216HW,2013-04-17 22:13:00,
2013-04-17 18:18:00,70.1,59.4,30.29,SE,135,0.0,1.1,69,0.00,,,0.23,WUHU216HW,2013-04-17 22:18:00,
2013-04-17 18:23:00,69.9,59.2,30.29,SSE,158,0.0,0.0,69,0.00,,,0.23,WUHU216HW,2013-04-17 22:23:00,
2013-04-17 18:28:00,69.8,59.1,30.28,SSE,158,0.0,0.0,69,0.00,,,0.23,WUHU216HW,2013-04-17 22:28:00,
2013-04-17 18:33:00,69.6,58.9,30.29,SSE,158,0.0,0.0,69,0.00,,,0.23,WUHU216HW,2013-04-17 22:33:00,
2013-04-17 18:38:00,69.6,58.9,30.28,SE,135,0.0,0.0,69,0.00,,,0.23,WUHU216HW,2013-04-17 22:38:00,
2013-04-17 18:43:00,69.6,58.9,30.28,SSE,158,0.0,0.0,69,0.00,,,0.23,WUHU216HW,2013-04-17 22:43:00,
2013-04-17 18:48:00,69.4,59.2,30.28,SE,135,0.0,0.0,70,0.00,,,0.23,WUHU216HW,2013-04-17 22:48:00,
2013-04-17 18:53:00,69.4,59.2,30.28,SE,135,0.0,0.0,70,0.00,,,0.23,WUHU216HW,2013-04-17 22:53:00,
2013-04-17 18:58:00,69.0,58.8,30.28,SSE,158,0.0,0.0,70,0.00,,,0.23,WUHU216HW,2013-04-17 22:58:00,
2013-04-17 19:03:00,68.9,58.7,30.28,ESE,113,0.0,0.0,70,0.00,,,0.23,WUHU216HW,2013-04-17 23:03:00,
2013-04-17 19:08:00,68.7,58.5,30.28,SE,135,0.0,0.0,70,0.00,,,0.23,WUHU216HW,2013-04-17 23:08:00,
2013-04-17 19:13:00,68.7,58.5,30.28,ESE,113,0.0,0.0,70,0.00,,,0.23,WUHU216HW,2013-04-17 23:13:00,
2013-04-17 19:18:00,68.5,58.4,30.28,SE,135,0.0,0.0,70,0.00,,,0.23,WUHU216HW,2013-04-17 23:18:00,
2013-04-17 19:23:00,68.3,58.6,30.28,ESE,113,0.0,0.0,71,0.00,,,0.23,WUHU216HW,2013-04-17 23:23:00,
2013-04-17 19:28:00,68.1,58.4,30.28,SSE,158,0.0,0.0,71,0.00,,,0.23,WUHU216HW,2013-04-17 23:28:00,
2013-04-17 19:33:00,67.8,58.1,30.28,SE,135,0.0,0.0,71,0.00,,,0.23,WUHU216HW,2013-04-17 23:33:00,
2013-04-17 19:38:00,67.8,58.1,30.28,SE,135,0.0,0.0,71,0.00,,,0.23,WUHU216HW,2013-04-17 23:38:00,
2013-04-17 19:43:00,67.6,57.9,30.28,SE,135,0.0,0.0,71,0.00,,,0.23,WUHU216HW,2013-04-17 23:43:00,
2013-04-17 19:48:00,67.2,57.5,30.29,SSE,158,0.0,0.0,71,0.00,,,0.23,WUHU216HW,2013-04-17 23:48:00,
2013-04-17 19:53:00,67.1,57.3,30.29,ESE,113,0.0,0.0,71,0.00,,,0.23,WUHU216HW,2013-04-17 23:53:00,
2013-04-17 19:58:00,66.9,57.2,30.28,ESE,113,1.1,1.1,71,0.00,,,0.23,WUHU216HW,2013-04-17 23:58:00,
2013-04-17 20:03:00,66.7,57.0,30.29,SE,135,0.0,1.1,71,0.00,,,0.23,WUHU216HW,2013-04-18 00:03:00,
2013-04-17 20:08:00,66.3,56.6,30.29,SE,135,0.0,0.0,71,0.00,,,0.23,WUHU216HW,2013-04-18 00:08:00,
2013-04-17 20:13:00,66.2,56.4,30.29,SE,135,0.0,0.0,71,0.00,,,0.23,WUHU216HW,2013-04-18 00:13:00,
2013-04-17 20:18:00,66.0,56.3,30.29,SE,135,0.0,0.0,71,0.00,,,0.23,WUHU216HW,2013-04-18 00:18:00,
2013-04-17 20:23:00,66.0,56.3,30.29,SE,135,0.0,0.0,71,0.00,,,0.23,WUHU216HW,2013-04-18 00:23:00,
2013-04-17 20:28:00,65.8,56.1,30.29,South,180,0.0,0.0,71,0.00,,,0.23,WUHU216HW,2013-04-18 00:28:00,
2013-04-17 20:33:00,65.4,55.8,30.29,SSE,158,0.0,0.0,71,0.00,,,0.23,WUHU216HW,2013-04-18 00:33:00,
2013-04-17 20:38:00,65.4,55.8,30.29,ESE,113,0.0,2.4,71,0.00,,,0.23,WUHU216HW,2013-04-18 00:38:00,
2013-04-17 20:43:00,65.3,55.6,30.29,SE,135,0.0,2.4,71,0.00,,,0.23,WUHU216HW,2013-04-18 00:43:00,
2013-04-17 20:48:00,65.1,55.5,30.29,SE,135,0.0,0.0,71,0.00,,,0.23,WUHU216HW,2013-04-18 00:48:00,
2013-04-17 20:53:00,65.1,55.5,30.30,SE,135,0.0,0.0,71,0.00,,,0.23,WUHU216HW,2013-04-18 00:53:00,
2013-04-17 20:58:00,64.9,55.3,30.30,SE,135,0.0,0.0,71,0.00,,,0.23,WUHU216HW,2013-04-18 00:58:00,
2013-04-17 21:03:00,64.7,55.5,30.30,SE,135,0.0,0.0,72,0.00,,,0.23,WUHU216HW,2013-04-18 01:03:00,
2013-04-17 21:08:00,64.7,55.5,30.30,SE,135,0.0,0.0,72,0.00,,,0.23,WUHU216HW,2013-04-18 01:08:00,
2013-04-17 21:13:00,64.5,55.3,30.30,SE,135,0.0,0.0,72,0.00,,,0.23,WUHU216HW,2013-04-18 01:13:00,
2013-04-17 21:19:00,64.4,55.2,30.30,SE,135,0.0,0.0,72,0.00,,,0.23,WUHU216HW,2013-04-18 01:19:00,
2013-04-17 21:24:00,64.2,55.0,30.30,South,180,0.0,0.0,72,0.00,,,0.23,WUHU216HW,2013-04-18 01:24:00,
2013-04-17 21:29:00,64.2,55.4,30.30,SE,135,0.0,0.0,73,0.00,,,0.23,WUHU216HW,2013-04-18 01:29:00,
2013-04-17 21:34:00,64.0,55.2,30.30,SE,135,0.0,0.0,73,0.00,,,0.23,WUHU216HW,2013-04-18 01:34:00,
2013-04-17 21:39:00,64.0,55.2,30.30,SE,135,0.0,0.0,73,0.00,,,0.23,WUHU216HW,2013-04-18 01:39:00,
2013-04-17 21:44:00,63.6,54.8,30.30,SE,135,0.0,0.0,73,0.00,,,0.23,WUHU216HW,2013-04-18 01:44:00,
2013-04-17 21:49:00,63.6,54.8,30.30,SE,135,0.0,0.0,73,0.00,,,0.23,WUHU216HW,2013-04-18 01:49:00,
2013-04-17 21:54:00,63.6,54.8,30.30,SE,135,0.0,0.0,73,0.00,,,0.23,WUHU216HW,2013-04-18 01:54:00,
2013-04-17 21:59:00,63.6,55.2,30.30,SE,135,0.0,0.0,74,0.00,,,0.23,WUHU216HW,2013-04-18 01:59:00,
2013-04-17 22:04:00,63.5,55.0,30.29,SE,135,0.0,0.0,74,0.00,,,0.23,WUHU216HW,2013-04-18 02:04:00,
2013-04-17 22:09:00,63.3,54.8,30.29,SE,135,0.0,0.0,74,0.00,,,0.23,WUHU216HW,2013-04-18 02:09:00,
2013-04-17 22:14:00,63.1,54.6,30.29,SE,135,0.0,0.0,74,0.00,,,0.23,WUHU216HW,2013-04-18 02:14:00,
2013-04-17 22:19:00,63.1,54.6,30.28,SE,135,0.0,0.0,74,0.00,,,0.23,WUHU216HW,2013-04-18 02:19:00,
2013-04-17 22:24:00,62.9,54.5,30.28,SE,135,0.0,0.0,74,0.00,,,0.23,WUHU216HW,2013-04-18 02:24:00,
2013-04-17 22:29:00,62.7,54.3,30.28,SE,135,0.0,0.0,74,0.00,,,0.23,WUHU216HW,2013-04-18 02:29:00,
2013-04-17 22:34:00,62.7,54.6,30.28,SE,135,0.0,0.0,75,0.00,,,0.23,WUHU216HW,2013-04-18 02:34:00,
2013-04-17 22:39:00,62.4,54.3,30.28,SE,135,0.0,0.0,75,0.00,,,0.23,WUHU216HW,2013-04-18 02:39:00,
2013-04-17 22:44:00,62.4,54.3,30.28,SE,135,0.0,0.0,75,0.00,,,0.23,WUHU216HW,2013-04-18 02:44:00,
2013-04-17 22:49:00,62.2,54.1,30.28,SE,135,0.0,0.0,75,0.00,,,0.23,WUHU216HW,2013-04-18 02:49:00,
2013-04-17 22:54:00,62.2,54.1,30.28,SE,135,0.0,0.0,75,0.00,,,0.23,WUHU216HW,2013-04-18 02:54:00,
2013-04-17 22:59:00,62.2,54.1,30.28,SE,135,0.0,0.0,75,0.00,,,0.23,WUHU216HW,2013-04-18 02:59:00,
2013-04-17 23:04:00,62.0,54.0,30.28,SE,135,0.0,0.0,75,0.00,,,0.23,WUHU216HW,2013-04-18 03:04:00,
2013-04-17 23:09:00,61.8,53.8,30.28,SE,135,0.0,0.0,75,0.00,,,0.23,WUHU216HW,2013-04-18 03:09:00,
2013-04-17 23:14:00,61.8,53.8,30.28,SE,135,0.0,0.0,75,0.00,,,0.23,WUHU216HW,2013-04-18 03:14:00,
2013-04-17 23:19:00,61.7,53.6,30.28,SE,135,0.0,0.0,75,0.00,,,0.23,WUHU216HW,2013-04-18 03:19:00,
2013-04-17 23:24:00,61.5,53.8,30.27,SE,135,0.0,0.0,76,0.00,,,0.23,WUHU216HW,2013-04-18 03:24:00,
2013-04-17 23:29:00,61.5,53.8,30.28,SE,135,0.0,0.0,76,0.00,,,0.23,WUHU216HW,2013-04-18 03:29:00,
2013-04-17 23:34:00,61.5,53.8,30.28,SE,135,0.0,0.0,76,0.00,,,0.23,WUHU216HW,2013-04-18 03:34:00,
2013-04-17 23:39:00,61.3,53.7,30.28,SE,135,0.0,0.0,76,0.00,,,0.23,WUHU216HW,2013-04-18 03:39:00,
2013-04-17 23:44:00,61.3,54.0,30.27,SSE,158,0.0,0.0,77,0.00,,,0.23,WUHU216HW,2013-04-18 03:44:00,
2013-04-17 23:49:00,61.3,54.0,30.27,SE,135,0.0,0.0,77,0.00,,,0.23,WUHU216HW,2013-04-18 03:49:00,
2013-04-17 23:54:00,61.3,54.0,30.27,SE,135,0.0,0.0,77,0.00,,,0.23,WUHU216HW,2013-04-18 03:54:00,
2013-04-17 23:59:00,61.3,54.0,30.26,ESE,113,0.0,0.0,77,0.00,,,0.23,WUHU216HW,2013-04-18 03:59:00,